| time (UTC) | temp F | wind direction | speed MPH | gust MPH | rain 1hr in | rain 24hr in | rain mn in | humidity % | barometer mb |
| 20260906131605 | 79 | 153 | 3.0 | 4.0 | 0.00 | 0.00 | 0.00 | 89 | 1015.1 |
| 20260906131552 | 79 | 123 | 1.0 | 4.0 | 0.00 | 0.00 | 0.00 | 88 | 1013.6 |
| 20260906130107 | 78 | 140 | 0.0 | 0.0 | 0.00 | 0.00 | 0.00 | 91 | 1015.0 |
| 20260906124556 | 77 | 142 | 0.0 | 1.0 | 0.00 | 0.00 | 0.00 | 91 | 1014.8 |
| 20260906124554 | 77 | 0 | 0.0 | 2.0 | 0.00 | 0.00 | 0.00 | 90 | 1013.0 |
| 20260906123056 | 77 | 150 | 0.0 | 2.0 | 0.00 | 0.00 | 0.00 | 90 | 1014.6 |
| 20260906123054 | 77 | 0 | 0.0 | 2.0 | 0.00 | 0.00 | 0.00 | 90 | 1012.9 |
| 20260906121557 | 77 | 141 | 0.0 | 2.0 | 0.00 | 0.00 | 0.00 | 90 | 1014.6 |
| 20260906120057 | 77 | 0 | 1.0 | 4.0 | 0.00 | 0.00 | 0.00 | 89 | 1012.5 |
| 20260906120052 | 77 | 138 | 0.0 | 4.0 | 0.00 | 0.00 | 0.00 | 90 | 1014.4 |
| 20260906114610 | 77 | 150 | 1.0 | 4.0 | 0.00 | 0.00 | 0.00 | 89 | 1012.5 |
| 20260906114603 | 77 | 150 | 1.0 | 5.0 | 0.00 | 0.00 | 0.00 | 89 | 1014.3 |
| 20260906113057 | 77 | 144 | 1.0 | 4.0 | 0.00 | 0.00 | 0.00 | 89 | 1012.5 |
| 20260906111550 | 77 | 186 | 0.0 | 2.0 | 0.00 | 0.00 | 0.00 | 88 | 1014.2 |
| 20260906110054 | 77 | 0 | 0.0 | 2.0 | 0.00 | 0.00 | 0.00 | 87 | 1012.4 |
| 20260906110049 | 77 | 186 | 0.0 | 1.0 | 0.00 | 0.00 | 0.00 | 88 | 1014.1 |
| 20260906104551 | 77 | 0 | 0.0 | 3.0 | 0.00 | 0.00 | 0.00 | 87 | 1012.3 |
| 20260906104545 | 77 | 182 | 0.0 | 2.0 | 0.00 | 0.00 | 0.00 | 87 | 1013.9 |
| 20260906103056 | 77 | 0 | 0.0 | 2.0 | 0.00 | 0.00 | 0.00 | 86 | 1012.2 |
| 20260906103044 | 77 | 144 | 0.0 | 2.0 | 0.00 | 0.00 | 0.00 | 87 | 1013.7 |
| 20260906101554 | 77 | 38 | 0.0 | 2.0 | 0.00 | 0.00 | 0.00 | 86 | 1011.6 |
| 20260906101543 | 77 | 38 | 0.0 | 2.0 | 0.00 | 0.00 | 0.00 | 87 | 1013.0 |
| 20260906100052 | 77 | 0 | 0.0 | 2.0 | 0.00 | 0.00 | 0.00 | 86 | 1011.5 |
| 20260906100042 | 77 | 64 | 0.0 | 2.0 | 0.00 | 0.00 | 0.00 | 86 | 1012.9 |
| 20260906094550 | 77 | 0 | 1.0 | 3.0 | 0.00 | 0.00 | 0.00 | 86 | 1011.7 |
| 20260906094542 | 77 | 59 | 1.0 | 3.0 | 0.00 | 0.00 | 0.00 | 86 | 1013.1 |
| 20260906093056 | 77 | 67 | 0.0 | 3.0 | 0.00 | 0.00 | 0.00 | 85 | 1011.5 |
| 20260906093040 | 77 | 67 | 0.0 | 3.0 | 0.00 | 0.00 | 0.00 | 86 | 1013.0 |
| 20260906091554 | 78 | 0 | 0.0 | 1.0 | 0.00 | 0.00 | 0.00 | 84 | 1011.5 |
| 20260906091539 | 78 | 161 | 0.0 | 1.0 | 0.00 | 0.00 | 0.00 | 85 | 1013.0 |
| 20260906090103 | 78 | 0 | 0.0 | 2.0 | 0.00 | 0.00 | 0.00 | 84 | 1011.6 |
| 20260906090036 | 78 | 161 | 0.0 | 2.0 | 0.00 | 0.00 | 0.00 | 84 | 1013.1 |
| 20260906084550 | 79 | 0 | 0.0 | 2.0 | 0.00 | 0.00 | 0.00 | 83 | 1011.9 |
| 20260906084534 | 79 | 161 | 0.0 | 2.0 | 0.00 | 0.00 | 0.00 | 83 | 1013.3 |
| 20260906083055 | 79 | 0 | 0.0 | 0.0 | 0.00 | 0.00 | 0.00 | 82 | 1011.8 |
| 20260906083031 | 79 | 183 | 0.0 | 1.0 | 0.00 | 0.00 | 0.00 | 82 | 1013.2 |
| 20260906081558 | 80 | 0 | 0.0 | 3.0 | 0.00 | 0.00 | 0.00 | 81 | 1011.9 |
| 20260906081540 | 80 | 183 | 0.0 | 3.0 | 0.00 | 0.00 | 0.00 | 81 | 1013.4 |
| 20260906080053 | 80 | 0 | 0.0 | 5.0 | 0.00 | 0.00 | 0.00 | 81 | 1012.3 |
| 20260906080030 | 80 | 179 | 0.0 | 5.0 | 0.00 | 0.00 | 0.00 | 81 | 1013.8 |
| 20260906074608 | 80 | 0 | 0.0 | 2.0 | 0.00 | 0.00 | 0.00 | 80 | 1012.5 |
| 20260906074525 | 80 | 175 | 0.0 | 2.0 | 0.00 | 0.00 | 0.00 | 81 | 1013.9 |
| 20260906073100 | 80 | 200 | 0.0 | 5.0 | 0.00 | 0.00 | 0.00 | 80 | 1012.6 |
| 20260906073023 | 80 | 200 | 0.0 | 4.0 | 0.00 | 0.00 | 0.00 | 80 | 1014.1 |
| 20260906071558 | 81 | 178 | 2.0 | 7.0 | 0.00 | 0.00 | 0.00 | 79 | 1012.8 |
| 20260906071520 | 81 | 178 | 1.0 | 7.0 | 0.00 | 0.00 | 0.00 | 80 | 1014.6 |
| 20260906070052 | 81 | 135 | 2.0 | 8.0 | 0.00 | 0.00 | 0.00 | 78 | 1013.0 |
| 20260906070019 | 81 | 135 | 2.0 | 7.0 | 0.00 | 0.00 | 0.00 | 79 | 1014.6 |
| 20260906064555 | 81 | 188 | 1.0 | 9.0 | 0.00 | 0.00 | 0.00 | 77 | 1013.1 |
| 20260906064516 | 81 | 149 | 1.0 | 9.0 | 0.00 | 0.00 | 0.00 | 77 | 1014.8 |
| 20260906063055 | 81 | 167 | 4.0 | 10.0 | 0.00 | 0.00 | 0.00 | 76 | 1013.2 |
| 20260906063015 | 81 | 211 | 4.0 | 9.0 | 0.00 | 0.00 | 0.00 | 76 | 1015.0 |
| 20260906061607 | 82 | 150 | 4.0 | 10.0 | 0.00 | 0.00 | 0.00 | 74 | 1013.2 |
| 20260906061514 | 82 | 167 | 4.0 | 8.0 | 0.00 | 0.00 | 0.00 | 75 | 1014.8 |
| 20260906060053 | 82 | 137 | 6.0 | 14.0 | 0.00 | 0.00 | 0.00 | 73 | 1013.2 |
| 20260906060021 | 82 | 150 | 6.0 | 14.0 | 0.00 | 0.00 | 0.00 | 73 | 1015.0 |
| 20260906054558 | 83 | 135 | 3.0 | 10.0 | 0.00 | 0.00 | 0.00 | 71 | 1013.2 |
| 20260906054509 | 83 | 126 | 3.0 | 10.0 | 0.00 | 0.00 | 0.00 | 72 | 1015.0 |
| 20260906053050 | 83 | 168 | 6.0 | 15.0 | 0.00 | 0.00 | 0.00 | 70 | 1013.3 |
| 20260906053018 | 83 | 167 | 6.0 | 15.0 | 0.00 | 0.00 | 0.00 | 71 | 1015.0 |
| 20260906051603 | 84 | 202 | 6.0 | 16.0 | 0.00 | 0.00 | 0.00 | 69 | 1013.1 |
| 20260906051513 | 84 | 176 | 5.0 | 16.0 | 0.00 | 0.00 | 0.00 | 69 | 1014.8 |
| 20260906050056 | 84 | 136 | 6.0 | 17.0 | 0.00 | 0.00 | 0.00 | 68 | 1013.2 |
| 20260906050020 | 84 | 209 | 6.0 | 16.0 | 0.00 | 0.00 | 0.00 | 69 | 1015.0 |
| 20260906044552 | 84 | 132 | 3.0 | 8.0 | 0.00 | 0.00 | 0.00 | 70 | 1013.4 |
| 20260906044506 | 84 | 155 | 3.0 | 8.0 | 0.00 | 0.00 | 0.00 | 70 | 1015.1 |
| 20260906043048 | 85 | 137 | 6.0 | 16.0 | 0.00 | 0.00 | 0.00 | 70 | 1013.3 |
| 20260906043006 | 85 | 171 | 8.0 | 14.0 | 0.00 | 0.00 | 0.00 | 70 | 1015.0 |
| 20260906041553 | 85 | 188 | 4.0 | 12.0 | 0.00 | 0.00 | 0.00 | 69 | 1013.3 |
| 20260906041505 | 85 | 190 | 4.0 | 12.0 | 0.00 | 0.00 | 0.00 | 69 | 1015.0 |
| 20260906040058 | 86 | 157 | 3.0 | 9.0 | 0.00 | 0.00 | 0.00 | 66 | 1013.1 |
| 20260906040004 | 86 | 164 | 3.0 | 9.0 | 0.00 | 0.00 | 0.00 | 67 | 1014.8 |
| 20260906034551 | 86 | 189 | 5.0 | 12.0 | 0.00 | 0.00 | 0.00 | 66 | 1013.0 |
| 20260906034503 | 86 | 192 | 5.0 | 12.0 | 0.00 | 0.00 | 0.00 | 66 | 1014.6 |
| 20260906033059 | 87 | 129 | 8.0 | 15.0 | 0.00 | 0.00 | 0.00 | 65 | 1012.7 |
| 20260906033009 | 87 | 139 | 9.0 | 15.0 | 0.00 | 0.00 | 0.00 | 65 | 1014.3 |
| 20260906031601 | 88 | 134 | 8.0 | 17.0 | 0.00 | 0.00 | 0.00 | 64 | 1012.2 |
| 20260906031502 | 88 | 112 | 8.0 | 17.0 | 0.00 | 0.00 | 0.00 | 64 | 1014.0 |
| 20260906030056 | 88 | 135 | 8.0 | 17.0 | 0.00 | 0.00 | 0.00 | 61 | 1012.1 |
| 20260906030005 | 88 | 159 | 8.0 | 14.0 | 0.00 | 0.00 | 0.00 | 62 | 1013.7 |
| 20260906024602 | 89 | 151 | 8.0 | 14.0 | 0.00 | 0.00 | 0.00 | 56 | 1011.7 |
| 20260906024501 | 89 | 115 | 8.0 | 14.0 | 0.00 | 0.00 | 0.00 | 56 | 1013.3 |
| 20260906023101 | 90 | 133 | 4.0 | 11.0 | 0.00 | 0.00 | 0.00 | 53 | 1012.9 |
| 20260906023053 | 90 | 167 | 5.0 | 11.0 | 0.00 | 0.00 | 0.00 | 52 | 1011.2 |
| 20260906021606 | 89 | 179 | 6.0 | 13.0 | 0.00 | 0.00 | 0.00 | 51 | 1012.6 |
| 20260906021553 | 89 | 142 | 5.0 | 14.0 | 0.00 | 0.00 | 0.00 | 50 | 1010.9 |
| 20260906020105 | 89 | 129 | 2.0 | 6.0 | 0.00 | 0.00 | 0.00 | 52 | 1010.4 |
| 20260906014559 | 89 | 98 | 3.0 | 6.0 | 0.00 | 0.00 | 0.00 | 52 | 1012.0 |
| 20260906014555 | 89 | 132 | 2.0 | 4.0 | 0.00 | 0.00 | 0.00 | 51 | 1010.2 |
| 20260906013058 | 90 | 140 | 2.0 | 4.0 | 0.00 | 0.00 | 0.00 | 51 | 1012.0 |
| 20260906013053 | 90 | 140 | 2.0 | 4.0 | 0.00 | 0.00 | 0.00 | 50 | 1010.2 |
| 20260906011558 | 90 | 145 | 2.0 | 4.0 | 0.00 | 0.00 | 0.00 | 51 | 1011.7 |
| 20260906011553 | 91 | 136 | 2.0 | 4.0 | 0.00 | 0.00 | 0.00 | 50 | 1010.0 |
| 20260906010056 | 91 | 121 | 1.0 | 4.0 | 0.00 | 0.00 | 0.00 | 51 | 1011.7 |
| 20260906010053 | 91 | 121 | 1.0 | 4.0 | 0.00 | 0.00 | 0.00 | 50 | 1010.1 |
| 20260906004557 | 92 | 155 | 1.0 | 3.0 | 0.00 | 0.00 | 0.00 | 50 | 1011.7 |
| 20260906003057 | 93 | 118 | 2.0 | 8.0 | 0.00 | 0.00 | 0.00 | 48 | 1009.9 |
| 20260906001557 | 94 | 109 | 2.0 | 9.0 | 0.00 | 0.00 | 0.00 | 48 | 1009.8 |
| 20260906001555 | 94 | 105 | 3.0 | 9.0 | 0.00 | 0.00 | 0.00 | 49 | 1011.5 |
| 20260906000054 | 94 | 142 | 4.0 | 10.0 | 0.00 | 0.00 | 0.00 | 49 | 1011.6 |
| 20260906000050 | 94 | 140 | 5.0 | 10.0 | 0.00 | 0.00 | 0.00 | 49 | 1009.8 |
| 20260905234558 | 95 | 184 | 4.0 | 10.0 | 0.00 | 0.00 | 0.00 | 48 | 1009.8 |
| 20260905234553 | 95 | 195 | 5.0 | 9.0 | 0.00 | 0.00 | 0.00 | 49 | 1011.7 |
| 20260905233054 | 95 | 0 | 2.0 | 7.0 | 0.00 | 0.00 | 0.00 | 47 | 1009.8 |
| 20260905231558 | 94 | 101 | 1.0 | 8.0 | 0.00 | 0.00 | 0.00 | 48 | 1009.8 |
| 20260905231552 | 95 | 99 | 0.0 | 5.0 | 0.00 | 0.00 | 0.00 | 48 | 1011.6 |
| 20260905230054 | 95 | 103 | 0.0 | 9.0 | 0.00 | 0.00 | 0.00 | 47 | 1009.9 |
| 20260905224605 | 94 | 67 | 3.0 | 9.0 | 0.00 | 0.00 | 0.00 | 47 | 1009.9 |
| 20260905224603 | 94 | 55 | 3.0 | 9.0 | 0.00 | 0.00 | 0.00 | 48 | 1011.7 |
| 20260905223054 | 94 | 148 | 2.0 | 9.0 | 0.00 | 0.00 | 0.00 | 47 | 1010.0 |
| 20260905223049 | 94 | 148 | 2.0 | 8.0 | 0.00 | 0.00 | 0.00 | 48 | 1011.9 |
| 20260905221602 | 95 | 121 | 4.0 | 12.0 | 0.00 | 0.00 | 0.00 | 51 | 1010.1 |
| 20260905221557 | 95 | 119 | 3.0 | 9.0 | 0.00 | 0.00 | 0.00 | 51 | 1012.0 |
| 20260905214556 | 97 | 350 | 2.0 | 9.0 | 0.00 | 0.00 | 0.00 | 50 | 1010.0 |
| 20260905214545 | 97 | 355 | 3.0 | 5.0 | 0.00 | 0.00 | 0.00 | 50 | 1011.8 |
| 20260905213053 | 97 | 110 | 5.0 | 10.0 | 0.00 | 0.00 | 0.00 | 49 | 1010.1 |
| 20260905213039 | 97 | 135 | 5.0 | 10.0 | 0.00 | 0.00 | 0.00 | 50 | 1012.1 |
| 20260905211629 | 96 | 80 | 4.0 | 9.0 | 0.00 | 0.00 | 0.00 | 50 | 1010.4 |
| 20260905211536 | 96 | 60 | 4.0 | 9.0 | 0.00 | 0.00 | 0.00 | 50 | 1012.3 |
| 20260905210056 | 96 | 101 | 7.0 | 12.0 | 0.00 | 0.00 | 0.00 | 50 | 1010.7 |
| 20260905210033 | 96 | 109 | 8.0 | 12.0 | 0.00 | 0.00 | 0.00 | 51 | 1012.4 |
| 20260905204556 | 95 | 86 | 6.0 | 12.0 | 0.00 | 0.00 | 0.00 | 54 | 1010.8 |
| 20260905204532 | 95 | 86 | 6.0 | 12.0 | 0.00 | 0.00 | 0.00 | 55 | 1012.5 |
| 20260905203114 | 95 | 185 | 3.0 | 11.0 | 0.00 | 0.00 | 0.00 | 53 | 1011.1 |
| 20260905203028 | 95 | 188 | 5.0 | 11.0 | 0.00 | 0.00 | 0.00 | 53 | 1012.8 |
| 20260905201601 | 95 | 128 | 6.0 | 13.0 | 0.00 | 0.00 | 0.00 | 53 | 1011.4 |
| 20260905201525 | 95 | 128 | 6.0 | 13.0 | 0.00 | 0.00 | 0.00 | 53 | 1013.1 |
| 20260905200100 | 95 | 165 | 3.0 | 10.0 | 0.00 | 0.00 | 0.00 | 53 | 1011.6 |
| 20260905200025 | 95 | 166 | 4.0 | 10.0 | 0.00 | 0.00 | 0.00 | 53 | 1013.4 |
| 20260905194548 | 94 | 0 | 0.0 | 10.0 | 0.00 | 0.00 | 0.00 | 57 | 1012.1 |
| 20260905194518 | 94 | 40 | 0.0 | 10.0 | 0.00 | 0.00 | 0.00 | 57 | 1014.0 |
| 20260905193055 | 93 | 175 | 3.0 | 8.0 | 0.00 | 0.00 | 0.00 | 54 | 1012.3 |
| 20260905193017 | 93 | 162 | 4.0 | 8.0 | 0.00 | 0.00 | 0.00 | 55 | 1014.1 |
| 20260905191551 | 94 | 138 | 1.0 | 11.0 | 0.00 | 0.00 | 0.00 | 55 | 1012.6 |
| 20260905191515 | 94 | 86 | 1.0 | 11.0 | 0.00 | 0.00 | 0.00 | 55 | 1014.5 |
| 20260905190054 | 94 | 136 | 4.0 | 10.0 | 0.00 | 0.00 | 0.00 | 55 | 1012.9 |
| 20260905190014 | 94 | 175 | 4.0 | 9.0 | 0.00 | 0.00 | 0.00 | 56 | 1014.8 |
| 20260905184603 | 92 | 264 | 2.0 | 10.0 | 0.00 | 0.00 | 0.00 | 57 | 1013.1 |
| 20260905184512 | 92 | 276 | 2.0 | 10.0 | 0.00 | 0.00 | 0.00 | 59 | 1014.9 |
| 20260905183058 | 92 | 145 | 4.0 | 10.0 | 0.00 | 0.00 | 0.00 | 60 | 1013.2 |
| 20260905183009 | 92 | 115 | 4.0 | 10.0 | 0.00 | 0.00 | 0.00 | 60 | 1015.1 |
| 20260905181609 | 92 | 146 | 5.0 | 11.0 | 0.00 | 0.00 | 0.00 | 62 | 1013.4 |
| 20260905181508 | 92 | 132 | 5.0 | 10.0 | 0.00 | 0.00 | 0.00 | 62 | 1015.3 |
| 20260905180054 | 91 | 174 | 2.0 | 8.0 | 0.00 | 0.00 | 0.00 | 63 | 1013.6 |
| 20260905180002 | 91 | 152 | 2.0 | 8.0 | 0.00 | 0.00 | 0.00 | 64 | 1015.5 |
| 20260905174552 | 91 | 126 | 3.0 | 13.0 | 0.00 | 0.00 | 0.00 | 65 | 1013.8 |
| 20260905174502 | 91 | 156 | 3.0 | 13.0 | 0.00 | 0.00 | 0.00 | 65 | 1015.6 |
| 20260905173057 | 91 | 146 | 5.0 | 12.0 | 0.00 | 0.00 | 0.00 | 64 | 1014.0 |
| 20260905173001 | 91 | 140 | 4.0 | 12.0 | 0.00 | 0.00 | 0.00 | 65 | 1015.8 |
| 20260905171558 | 90 | 134 | 2.0 | 10.0 | 0.00 | 0.00 | 0.00 | 67 | 1015.9 |
| 20260905171554 | 90 | 121 | 2.0 | 7.0 | 0.00 | 0.00 | 0.00 | 66 | 1014.3 |
| 20260905170101 | 90 | 175 | 3.0 | 11.0 | 0.00 | 0.00 | 0.00 | 67 | 1016.0 |
| 20260905170053 | 90 | 230 | 3.0 | 11.0 | 0.00 | 0.00 | 0.00 | 67 | 1014.5 |
| 20260905164557 | 89 | 177 | 4.0 | 11.0 | 0.00 | 0.00 | 0.00 | 68 | 1014.5 |
| 20260905164554 | 89 | 172 | 3.0 | 9.0 | 0.00 | 0.00 | 0.00 | 69 | 1016.1 |
| 20260905163054 | 88 | 143 | 4.0 | 11.0 | 0.00 | 0.00 | 0.00 | 72 | 1014.7 |
| 20260905163050 | 88 | 142 | 4.0 | 11.0 | 0.00 | 0.00 | 0.00 | 72 | 1016.2 |
| 20260905161551 | 87 | 161 | 4.0 | 10.0 | 0.00 | 0.00 | 0.00 | 74 | 1014.7 |
| 20260905161547 | 87 | 180 | 3.0 | 10.0 | 0.00 | 0.00 | 0.00 | 75 | 1016.4 |
| 20260905160133 | 87 | 146 | 2.0 | 10.0 | 0.00 | 0.00 | 0.00 | 76 | 1014.6 |
| 20260905160114 | 87 | 167 | 1.0 | 7.0 | 0.00 | 0.00 | 0.00 | 76 | 1016.4 |
| 20260905154554 | 85 | 102 | 3.0 | 12.0 | 0.00 | 0.00 | 0.00 | 80 | 1014.6 |
| 20260905154548 | 85 | 121 | 2.0 | 10.0 | 0.00 | 0.00 | 0.00 | 80 | 1016.3 |
| 20260905153051 | 84 | 139 | 4.0 | 10.0 | 0.00 | 0.00 | 0.00 | 81 | 1014.6 |
| 20260905153041 | 84 | 139 | 4.0 | 7.0 | 0.00 | 0.00 | 0.00 | 81 | 1016.2 |
| 20260905151557 | 84 | 155 | 2.0 | 7.0 | 0.00 | 0.00 | 0.00 | 81 | 1014.6 |
| 20260905151541 | 84 | 136 | 3.0 | 7.0 | 0.00 | 0.00 | 0.00 | 81 | 1016.2 |
| 20260905150058 | 84 | 221 | 2.0 | 7.0 | 0.00 | 0.00 | 0.00 | 82 | 1014.6 |
| 20260905150038 | 84 | 137 | 1.0 | 7.0 | 0.00 | 0.00 | 0.00 | 83 | 1016.2 |
| 20260905144557 | 82 | 0 | 4.0 | 8.0 | 0.00 | 0.00 | 0.00 | 85 | 1014.6 |
| 20260905144536 | 82 | 138 | 3.0 | 8.0 | 0.00 | 0.00 | 0.00 | 85 | 1016.2 |
| 20260905143052 | 82 | 162 | 1.0 | 6.0 | 0.00 | 0.00 | 0.00 | 84 | 1014.5 |
| 20260905143035 | 82 | 162 | 1.0 | 5.0 | 0.00 | 0.00 | 0.00 | 85 | 1016.2 |
| 20260905141553 | 82 | 143 | 0.0 | 6.0 | 0.00 | 0.00 | 0.00 | 85 | 1014.4 |
| 20260905141540 | 82 | 143 | 0.0 | 6.0 | 0.00 | 0.00 | 0.00 | 85 | 1016.2 |
| 20260905140058 | 82 | 157 | 0.0 | 6.0 | 0.00 | 0.00 | 0.00 | 84 | 1014.2 |
| 20260905140036 | 82 | 157 | 1.0 | 4.0 | 0.00 | 0.00 | 0.00 | 84 | 1016.2 |
| 20260905134556 | 82 | 158 | 1.0 | 5.0 | 0.00 | 0.00 | 0.00 | 86 | 1014.2 |
| 20260905134535 | 82 | 158 | 2.0 | 5.0 | 0.00 | 0.00 | 0.00 | 86 | 1015.8 |
| 20260905133052 | 80 | 190 | 2.0 | 7.0 | 0.00 | 0.00 | 0.00 | 88 | 1014.0 |
| 20260905133031 | 80 | 190 | 2.0 | 6.0 | 0.00 | 0.00 | 0.00 | 89 | 1015.7 |